TimeMDT,TemperatureF,Dew PointF,Humidity,Sea Level PressureIn,VisibilityMPH,Wind Direction,Wind SpeedMPH,Gust SpeedMPH,PrecipitationIn,Events,Conditions,WindDirDegrees,DateUTC
12:53 AM,66.9,34.0,30,29.87,10.0,SE,3.5,-,N/A,,Clear,140,2013-07-24 06:53:00
1:53 AM,68.0,35.1,30,29.86,10.0,SSW,5.8,-,N/A,,Clear,200,2013-07-24 07:53:00
2:53 AM,63.0,34.0,34,29.86,10.0,SW,6.9,-,N/A,,Clear,220,2013-07-24 08:53:00
3:53 AM,54.0,35.1,49,29.91,10.0,SW,5.8,-,N/A,,Clear,220,2013-07-24 09:53:00
4:53 AM,57.0,35.1,44,29.90,10.0,South,6.9,-,N/A,,Clear,190,2013-07-24 10:53:00
5:53 AM,57.0,36.0,45,29.92,10.0,SSW,4.6,-,N/A,,Clear,210,2013-07-24 11:53:00
6:53 AM,57.9,37.0,46,29.94,10.0,South,4.6,-,N/A,,Clear,190,2013-07-24 12:53:00
7:53 AM,61.0,39.0,44,29.94,10.0,SSW,4.6,-,N/A,,Clear,200,2013-07-24 13:53:00
8:53 AM,68.0,39.9,36,29.93,10.0,North,6.9,-,N/A,,Clear,350,2013-07-24 14:53:00
9:53 AM,72.0,39.9,31,29.94,10.0,NNE,9.2,-,N/A,,Clear,20,2013-07-24 15:53:00
10:53 AM,71.1,39.9,32,29.96,10.0,SW,3.5,-,0.00,Rain,Light Rain,230,2013-07-24 16:53:00
11:39 AM,69.8,39.2,33,30.37,10.0,NE,11.5,25.3,0.00,,Mostly Cloudy,40,2013-07-24 17:39:00
11:53 AM,70.0,39.9,33,29.98,10.0,Variable,4.6,-,0.00,,Mostly Cloudy,0,2013-07-24 17:53:00
12:53 PM,71.1,39.0,31,29.99,10.0,Calm,Calm,-,N/A,,Mostly Cloudy,0,2013-07-24 18:53:00
1:53 PM,69.1,37.9,32,30.02,10.0,SSW,17.3,24.2,N/A,,Mostly Cloudy,200,2013-07-24 19:53:00
2:53 PM,71.1,39.0,31,29.99,10.0,SSE,9.2,-,N/A,,Mostly Cloudy,160,2013-07-24 20:53:00
3:53 PM,72.0,39.0,30,30.01,10.0,Variable,3.5,-,N/A,,Mostly Cloudy,0,2013-07-24 21:53:00
4:53 PM,71.1,39.9,32,29.98,10.0,North,8.1,-,N/A,,Mostly Cloudy,350,2013-07-24 22:53:00
5:53 PM,73.9,36.0,25,29.92,10.0,Variable,3.5,-,N/A,,Clear,0,2013-07-24 23:53:00
6:53 PM,71.1,41.0,34,29.91,10.0,WSW,5.8,-,N/A,,Scattered Clouds,240,2013-07-25 00:53:00
7:53 PM,64.0,42.1,45,29.93,10.0,SSE,3.5,-,N/A,,Clear,160,2013-07-25 01:53:00
8:53 PM,60.1,41.0,49,29.94,10.0,South,8.1,-,N/A,,Partly Cloudy,190,2013-07-25 02:53:00
9:53 PM,59.0,39.0,48,29.94,10.0,SW,8.1,-,N/A,,Clear,220,2013-07-25 03:53:00
10:53 PM,60.1,39.0,46,29.94,10.0,SW,4.6,-,0.00,,Clear,220,2013-07-25 04:53:00
11:53 PM,59.0,39.0,48,29.94,10.0,SSW,8.1,-,N/A,,Clear,210,2013-07-25 05:53:00